sat.trackr.live / text

‹ back to catalog

IRNSS-1F

NORAD 41384 · 2016-015A

PAYLOAD ACTIVE UNKNOWN

§ Identity

Operator
Country
IND
Launch date
2016-03-10
Launch site
SRILR
Launch vehicle
Mass (kg)
RCS (m²)
0.00

Purposes: comms

External: N2YO · Heavens-Above · Gunter

§ Orbital elements

Epoch: 2026-09-14T17:22:45.757344Z

Period
1,436.03 min
Inclination
5.5683°
Eccentricity
0.0020065
Mean motion
1.00276269 rev/d
Perigee alt
35,700.7 km
Apogee alt
35,869.9 km
Semi-major
42,163.5 km
B*
0.0000e+0
RAAN
94.7125°
Arg perigee
175.5025°
Mean anomaly
16.6875°
Rev number
3,856

§ Raw data

IRNSS-1F1 41384U 16015A   26257.72414071  .00000151  00000+0  00000+0 0  99962 41384   5.5683  94.7125 0020065 175.5025  16.6875  1.00276269 38563

JSON: /api/v1/satellites/41384 · /tle

For live sub-satellite position, see the globe view (requires WebGL).

§ Visibility from observer

Set your observer location to see the next 7 days of passes ≥ 10°. The values pass through the URL so the page stays shareable.

No JS? Fill the form by hand. The geolocation button needs JavaScript.